Idabel, OK

1:54 PM CST on February 26, 2017 (GMT -0600)
Idabel

Weather History for K4O4 - April, 2014

Change the Weather History Date:

Thursday, April 3, 2014

  Actual Average (KPRX) Record (KPRX)
Temperature  
Mean Temperature 71 °F -  
Max Temperature 80 °F 69 °F 82 °F (2011)
Min Temperature 62 °F 49 °F 37 °F (2009)
Cooling Degree Days 6    
Growing Degree Days 21 (Base 50)    
Moisture  
Dew Point 64 °F    
Average Humidity 74    
Maximum Humidity 83    
Minimum Humidity 51    
Precipitation  
Precipitation 0.00 in - - ()
Sea Level Pressure  
Sea Level Pressure 29.74 in    
Wind  
Wind Speed 13 mph (South)    
Max Wind Speed 23 mph    
Max Gust Speed 29 mph    
Visibility 9 miles    
Events      
Averages and records for this station are not official NWS values.
T = Trace of Precipitation, MM = Missing Value Source: NWS Daily Summary

Daily Weather History Graph

Daily Weather History Graph

Search for Another Location

Airport or City:

Trip Planner

Search our weather history database for the weather conditions in past years. The results will help you decide how hot, cold, wet, or windy it might be!

Date:

Astronomy

Apr. 03, 2014 Rise Set
Actual Time 7:04 AM CDT 7:41 PM CDT
Civil Twilight 6:38 AM CDT 8:06 PM CDT
Nautical Twilight 6:09 AM CDT 8:36 PM CDT
Astronomical Twilight 5:39 AM CDT 9:07 PM CDT
Moon 9:42 AM CDT (4/3) 11:52 PM CDT (4/3)
Length of Visible Light 13h 28m
Length of Day
12h 37m
Waxing Crescent, 17% of the Moon is Illuminated
Apr 3
Waxing Crescent
Apr 7
First Quarter
Apr 15
Full
Apr 22
Last Quarter
Apr 29
New

Hourly Weather History & Observations

Time (CDT) Temp. Heat Index Dew Point Humidity Pressure Visibility Wind Dir Wind Speed Gust Speed Precip Events Conditions
12:01 AM 71.6 °F - 64.4 °F 78% 29.79 in 10.0 mi SSE 16.1 mph 20.7 mph N/A   Overcast
12:21 AM 71.6 °F - 64.4 °F 78% 29.78 in 10.0 mi SSE 12.7 mph 21.9 mph N/A   Mostly Cloudy
1:01 AM 71.6 °F - 64.4 °F 78% 29.77 in 10.0 mi SSE 16.1 mph 21.9 mph N/A   Mostly Cloudy
1:21 AM 71.6 °F - 64.4 °F 78% 29.77 in 10.0 mi SSE 12.7 mph - N/A   Mostly Cloudy
1:41 AM 71.6 °F - 64.4 °F 78% 29.76 in 10.0 mi SSE 12.7 mph 20.7 mph N/A   Mostly Cloudy
2:01 AM 71.6 °F - 64.4 °F 78% 29.76 in 10.0 mi South 16.1 mph 20.7 mph N/A   Mostly Cloudy
2:21 AM 71.6 °F - 64.4 °F 78% 29.76 in 10.0 mi South 12.7 mph 20.7 mph N/A   Overcast
2:41 AM 71.6 °F - 64.4 °F 78% 29.75 in 10.0 mi South 12.7 mph - N/A   Overcast
3:01 AM 71.6 °F - 64.4 °F 78% 29.75 in 10.0 mi South 11.5 mph - N/A   Overcast
3:21 AM 71.6 °F - 66.2 °F 83% 29.74 in 10.0 mi South 12.7 mph - N/A   Overcast
3:41 AM 71.6 °F - 66.2 °F 83% 29.73 in 10.0 mi South 13.8 mph - N/A   Mostly Cloudy
4:01 AM 71.6 °F - 66.2 °F 83% 29.72 in 10.0 mi SSE 11.5 mph 20.7 mph N/A   Overcast
4:21 AM 71.6 °F - 66.2 °F 83% 29.73 in 10.0 mi South 15.0 mph 19.6 mph N/A   Overcast
4:41 AM 71.6 °F - 66.2 °F 83% 29.74 in 10.0 mi South 12.7 mph 19.6 mph N/A   Overcast
5:01 AM 71.6 °F - 66.2 °F 83% 29.73 in 7.0 mi SSE 9.2 mph - N/A   Overcast
5:21 AM 71.6 °F - 66.2 °F 83% 29.74 in 7.0 mi SSE 11.5 mph - N/A   Overcast
5:41 AM 71.6 °F - 66.2 °F 83% 29.74 in 10.0 mi SSE 9.2 mph - N/A   Overcast
6:01 AM 71.6 °F - 66.2 °F 83% 29.74 in 10.0 mi South 10.4 mph - N/A   Overcast
6:21 AM 71.6 °F - 66.2 °F 83% 29.74 in 10.0 mi South 9.2 mph - N/A   Overcast
6:41 AM 71.6 °F - 66.2 °F 83% 29.74 in 7.0 mi South 10.4 mph - N/A   Overcast
7:01 AM 71.6 °F - 66.2 °F 83% 29.74 in 7.0 mi South 10.4 mph - N/A   Overcast
7:21 AM 71.6 °F - 66.2 °F 83% 29.75 in 7.0 mi SSE 9.2 mph - N/A   Overcast
7:41 AM 71.6 °F - 66.2 °F 83% 29.75 in 7.0 mi South 10.4 mph - N/A   Overcast
8:01 AM 71.6 °F - 66.2 °F 83% 29.74 in 7.0 mi South 12.7 mph - N/A   Overcast
8:21 AM 71.6 °F - 66.2 °F 83% 29.75 in 7.0 mi South 13.8 mph - N/A   Overcast
8:41 AM 71.6 °F - 66.2 °F 83% 29.74 in 7.0 mi South 23.0 mph 26.5 mph N/A   Mostly Cloudy
9:01 AM 71.6 °F - 66.2 °F 83% 29.73 in 7.0 mi South 18.4 mph 28.8 mph N/A   Scattered Clouds
9:21 AM 73.4 °F - 66.2 °F 78% 29.73 in 10.0 mi South 17.3 mph 20.7 mph N/A   Scattered Clouds
9:41 AM 73.4 °F - 66.2 °F 78% 29.74 in 10.0 mi South 17.3 mph 26.5 mph N/A   Mostly Cloudy
10:01 AM 73.4 °F - 64.4 °F 73% 29.76 in 10.0 mi SSW 11.5 mph - N/A   Mostly Cloudy
10:21 AM 71.6 °F - 64.4 °F 78% 29.77 in 10.0 mi SSW 10.4 mph 18.4 mph N/A   Overcast
10:41 AM 71.6 °F - 64.4 °F 78% 29.79 in 10.0 mi SSW 8.1 mph 11.5 mph N/A   Overcast
11:01 AM 71.6 °F - 64.4 °F 78% 29.79 in 10.0 mi SSW 9.2 mph - N/A   Overcast
11:21 AM 71.6 °F - 64.4 °F 78% 29.79 in 7.0 mi SSW 8.1 mph - N/A   Overcast
11:41 AM 71.6 °F - 64.4 °F 78% 29.79 in 7.0 mi South 5.8 mph - N/A   Mostly Cloudy
12:01 PM 71.6 °F - 64.4 °F 78% 29.77 in 10.0 mi South 9.2 mph - N/A   Scattered Clouds
12:21 PM 73.4 °F - 64.4 °F 73% 29.77 in 10.0 mi South 10.4 mph - N/A   Scattered Clouds
12:41 PM 71.6 °F - 62.6 °F 73% 29.77 in 5.0 mi SSE 9.2 mph - N/A   Scattered Clouds
1:01 PM 71.6 °F - 64.4 °F 78% 29.76 in 10.0 mi SSE 8.1 mph - N/A   Mostly Cloudy
1:21 PM 71.6 °F - 64.4 °F 78% 29.75 in 10.0 mi SSE 8.1 mph - N/A   Scattered Clouds
1:41 PM 73.4 °F - 64.4 °F 73% 29.76 in 10.0 mi South 12.7 mph - N/A   Scattered Clouds
2:01 PM 73.4 °F - 64.4 °F 73% 29.75 in 10.0 mi South 15.0 mph 20.7 mph N/A   Scattered Clouds
2:21 PM 75.2 °F - 62.6 °F 65% 29.75 in 10.0 mi South 16.1 mph - N/A   Scattered Clouds
2:41 PM 75.2 °F - 62.6 °F 65% 29.74 in 10.0 mi South 15.0 mph - N/A   Scattered Clouds
3:01 PM 77.0 °F - 64.4 °F 65% 29.71 in 10.0 mi South 15.0 mph 18.4 mph N/A   Clear
3:21 PM 77.0 °F - 62.6 °F 61% 29.73 in 10.0 mi South 16.1 mph 21.9 mph N/A   Scattered Clouds
3:41 PM 77.0 °F - 62.6 °F 61% 29.71 in 10.0 mi South 12.7 mph 21.9 mph N/A   Scattered Clouds
4:01 PM 80.6 °F 81.8 °F 62.6 °F 54% 29.69 in 10.0 mi South 16.1 mph 24.2 mph N/A   Clear
4:21 PM 80.6 °F 81.5 °F 60.8 °F 51% 29.70 in 10.0 mi SSW 13.8 mph 27.6 mph N/A   Scattered Clouds
4:43 PM 78.8 °F - 60.8 °F 54% 29.70 in 10.0 mi SSW 17.3 mph 24.2 mph N/A   Scattered Clouds
5:01 PM 78.8 °F - 62.6 °F 57% 29.69 in 10.0 mi South 13.8 mph 18.4 mph N/A   Scattered Clouds
5:21 PM 78.8 °F - 60.8 °F 54% 29.70 in 10.0 mi South 18.4 mph 23.0 mph N/A   Scattered Clouds
5:41 PM 78.8 °F - 60.8 °F 54% 29.69 in 10.0 mi South 12.7 mph 18.4 mph N/A   Clear
6:01 PM 77.0 °F - 62.6 °F 61% 29.70 in 10.0 mi South 9.2 mph - N/A   Clear
6:21 PM 77.0 °F - 60.8 °F 57% 29.69 in 10.0 mi SSW 15.0 mph 21.9 mph N/A   Clear
6:41 PM 75.2 °F - 60.8 °F 61% 29.69 in 10.0 mi South 9.2 mph - N/A   Clear
7:01 PM 75.2 °F - 62.6 °F 65% 29.69 in 10.0 mi South 11.5 mph - N/A   Clear
7:23 PM 75.2 °F - 62.6 °F 65% 29.70 in 10.0 mi South 12.7 mph - N/A   Clear
7:41 PM 73.4 °F - 62.6 °F 69% 29.67 in 10.0 mi South 11.5 mph - N/A   Clear
8:01 PM 73.4 °F - 62.6 °F 69% 29.66 in 10.0 mi SSE 10.4 mph 18.4 mph N/A   Clear
8:23 PM 73.4 °F - 62.6 °F 69% 29.69 in 10.0 mi South 10.4 mph - N/A   Clear
9:01 PM 73.4 °F - 62.6 °F 69% 29.70 in 10.0 mi South 9.2 mph - N/A   Clear
9:21 PM 73.4 °F - 62.6 °F 69% 29.72 in 10.0 mi South 11.5 mph - N/A   Clear
9:41 PM 73.4 °F - 62.6 °F 69% 29.75 in 10.0 mi West 4.6 mph - N/A   Clear
11:21 PM 62.6 °F - 55.4 °F 77% 29.71 in 10.0 mi SSW 4.6 mph - N/A   Clear
11:41 PM 62.6 °F - 55.4 °F 77% 29.75 in 10.0 mi West 11.5 mph 16.1 mph N/A   Clear